| time (UTC) | temp F | wind direction | speed knots | gust knots | rain 1hr in | rain 24hr in | rain mn in | humidity % | barometer mb |
| 20260906224129 | 100 | 52 | 5.2 | 8.7 | 0.00 | 0.00 | 0.00 | 36 | 1008.2 |
| 20260906223625 | 100 | 150 | 5.2 | 7.0 | 0.00 | 0.00 | 0.00 | 37 | 1008.4 |
| 20260906223124 | 99 | 235 | 1.7 | 5.2 | 0.00 | 0.00 | 0.00 | 37 | 1008.2 |
| 20260906222623 | 99 | 353 | 2.6 | 6.1 | 0.00 | 0.00 | 0.00 | 38 | 1008.4 |
| 20260906222122 | 99 | 158 | 3.5 | 6.1 | 0.00 | 0.00 | 0.00 | 37 | 1008.3 |
| 20260906221620 | 98 | 160 | 3.5 | 7.8 | 0.00 | 0.00 | 0.00 | 38 | 1008.3 |
| 20260906221115 | 99 | 284 | 0.9 | 5.2 | 0.00 | 0.00 | 0.00 | 37 | 1008.4 |
| 20260906220610 | 99 | 195 | 4.3 | 7.8 | 0.00 | 0.00 | 0.00 | 37 | 1008.4 |
| 20260906220106 | 98 | 172 | 3.5 | 6.1 | 0.00 | 0.00 | 0.00 | 38 | 1008.5 |
| 20260906215604 | 97 | 150 | 4.3 | 7.8 | 0.00 | 0.00 | 0.00 | 39 | 1008.6 |
| 20260906215103 | 100 | 120 | 4.3 | 5.2 | 0.00 | 0.00 | 0.00 | 38 | 1008.8 |
| 20260906214602 | 100 | 152 | 1.7 | 2.6 | 0.00 | 0.00 | 0.00 | 38 | 1008.6 |
| 20260906214057 | 101 | 132 | 5.2 | 7.0 | 0.00 | 0.00 | 0.00 | 37 | 1008.8 |
| 20260906213556 | 100 | 197 | 3.5 | 6.1 | 0.00 | 0.00 | 0.00 | 37 | 1008.7 |
| 20260906213051 | 100 | 207 | 0.9 | 7.0 | 0.00 | 0.00 | 0.00 | 38 | 1008.9 |
| 20260906212543 | 99 | 151 | 6.1 | 7.8 | 0.00 | 0.00 | 0.00 | 37 | 1008.7 |
| 20260906212039 | 99 | 192 | 0.0 | 0.0 | 0.00 | 0.00 | 0.00 | 38 | 1008.9 |
| 20260906211538 | 99 | 130 | 2.6 | 9.6 | 0.00 | 0.00 | 0.00 | 38 | 1009.0 |
| 20260906211034 | 99 | 172 | 1.7 | 7.0 | 0.00 | 0.00 | 0.00 | 39 | 1009.0 |
| 20260906210529 | 100 | 209 | 1.7 | 6.1 | 0.00 | 0.00 | 0.00 | 37 | 1009.2 |
| 20260906210029 | 101 | 176 | 5.2 | 7.0 | 0.00 | 0.00 | 0.00 | 36 | 1009.3 |
| 20260906205525 | 101 | 208 | 1.7 | 5.2 | 0.00 | 0.00 | 0.00 | 37 | 1009.4 |
| 20260906205021 | 101 | 161 | 0.0 | 5.2 | 0.00 | 0.00 | 0.00 | 38 | 1009.5 |
| 20260906204521 | 101 | 68 | 3.5 | 5.2 | 0.00 | 0.00 | 0.00 | 37 | 1009.5 |
| 20260906204021 | 100 | 200 | 0.9 | 7.0 | 0.00 | 0.00 | 0.00 | 38 | 1009.4 |
| 20260906203515 | 100 | 185 | 3.5 | 7.0 | 0.00 | 0.00 | 0.00 | 38 | 1009.4 |
| 20260906203016 | 97 | 169 | 5.2 | 7.0 | 0.00 | 0.00 | 0.00 | 41 | 1009.5 |
| 20260906202512 | 97 | 22 | 1.7 | 6.1 | 0.00 | 0.00 | 0.00 | 39 | 1009.5 |
| 20260906202008 | 96 | 236 | 2.6 | 5.2 | 0.00 | 0.00 | 0.00 | 40 | 1009.5 |
| 20260906201507 | 98 | 62 | 5.2 | 9.6 | 0.00 | 0.00 | 0.00 | 39 | 1009.6 |
| 20260906201007 | 100 | 196 | 3.5 | 11.3 | 0.00 | 0.00 | 0.00 | 38 | 1009.8 |
| 20260906200504 | 100 | 173 | 4.3 | 9.6 | 0.00 | 0.00 | 0.00 | 39 | 1009.7 |
| 20260906200004 | 100 | 196 | 5.2 | 8.7 | 0.00 | 0.00 | 0.00 | 39 | 1009.7 |
| 20260906195459 | 100 | 205 | 1.7 | 7.8 | 0.00 | 0.00 | 0.00 | 40 | 1009.8 |
| 20260906194955 | 99 | 88 | 1.7 | 2.6 | 0.00 | 0.00 | 0.00 | 40 | 1009.9 |
| 20260906194451 | 100 | 51 | 3.5 | 5.2 | 0.00 | 0.00 | 0.00 | 38 | 1009.9 |
| 20260906193947 | 99 | 58 | 1.7 | 5.2 | 0.00 | 0.00 | 0.00 | 39 | 1009.9 |
| 20260906193447 | 99 | 164 | 1.7 | 5.2 | 0.00 | 0.00 | 0.00 | 39 | 1010.0 |
| 20260906192942 | 99 | 34 | 2.6 | 7.8 | 0.00 | 0.00 | 0.00 | 39 | 1010.2 |
| 20260906192437 | 99 | 156 | 6.1 | 8.7 | 0.00 | 0.00 | 0.00 | 40 | 1010.0 |
| 20260906191936 | 98 | 206 | 0.0 | 0.9 | 0.00 | 0.00 | 0.00 | 41 | 1010.1 |
| 20260906191431 | 98 | 47 | 5.2 | 7.8 | 0.00 | 0.00 | 0.00 | 41 | 1010.2 |
| 20260906190930 | 98 | 108 | 2.6 | 7.8 | 0.00 | 0.00 | 0.00 | 39 | 1010.2 |
| 20260906190429 | 100 | 44 | 7.0 | 11.3 | 0.00 | 0.00 | 0.00 | 39 | 1010.4 |
| 20260906185924 | 99 | 135 | 3.5 | 11.3 | 0.00 | 0.00 | 0.00 | 40 | 1010.4 |
| 20260906185424 | 99 | 22 | 0.0 | 0.0 | 0.00 | 0.00 | 0.00 | 40 | 1010.3 |
| 20260906184923 | 99 | 26 | 3.5 | 7.8 | 0.00 | 0.00 | 0.00 | 39 | 1010.4 |
| 20260906184418 | 99 | 165 | 7.8 | 11.3 | 0.00 | 0.00 | 0.00 | 39 | 1010.5 |
| 20260906183914 | 98 | 141 | 0.0 | 5.2 | 0.00 | 0.00 | 0.00 | 41 | 1010.5 |
| 20260906183410 | 98 | 180 | 0.0 | 7.8 | 0.00 | 0.00 | 0.00 | 41 | 1010.5 |
| 20260906182905 | 98 | 133 | 5.2 | 7.8 | 0.00 | 0.00 | 0.00 | 41 | 1010.8 |
| 20260906182400 | 99 | 161 | 0.9 | 6.1 | 0.00 | 0.00 | 0.00 | 41 | 1010.6 |
| 20260906181855 | 98 | 184 | 2.6 | 7.8 | 0.00 | 0.00 | 0.00 | 41 | 1010.6 |
| 20260906181352 | 98 | 167 | 2.6 | 6.1 | 0.00 | 0.00 | 0.00 | 41 | 1010.9 |
| 20260906180847 | 98 | 199 | 1.7 | 7.0 | 0.00 | 0.00 | 0.00 | 42 | 1011.1 |
| 20260906180342 | 97 | 182 | 2.6 | 7.0 | 0.00 | 0.00 | 0.00 | 43 | 1011.2 |
| 20260906175839 | 98 | 60 | 4.3 | 7.0 | 0.00 | 0.00 | 0.00 | 42 | 1011.2 |
| 20260906175334 | 97 | 216 | 3.5 | 9.6 | 0.00 | 0.00 | 0.00 | 43 | 1011.4 |
| 20260906174834 | 97 | 90 | 3.5 | 6.1 | 0.00 | 0.00 | 0.00 | 43 | 1011.3 |
| 20260906174333 | 97 | 170 | 1.7 | 3.5 | 0.00 | 0.00 | 0.00 | 42 | 1011.5 |
| 20260906173828 | 97 | 199 | 2.6 | 7.0 | 0.00 | 0.00 | 0.00 | 43 | 1011.6 |
| 20260906173324 | 97 | 24 | 7.0 | 9.6 | 0.00 | 0.00 | 0.00 | 42 | 1011.7 |
| 20260906172823 | 97 | 153 | 1.7 | 7.8 | 0.00 | 0.00 | 0.00 | 44 | 1011.6 |
| 20260906172319 | 97 | 158 | 2.6 | 8.7 | 0.00 | 0.00 | 0.00 | 45 | 1011.8 |
| 20260906171820 | 98 | 19 | 1.7 | 9.6 | 0.00 | 0.00 | 0.00 | 43 | 1011.9 |
| 20260906171314 | 97 | 21 | 1.7 | 3.5 | 0.00 | 0.00 | 0.00 | 44 | 1012.0 |
| 20260906170810 | 97 | 103 | 3.5 | 5.2 | 0.00 | 0.00 | 0.00 | 46 | 1011.9 |
| 20260906170301 | 96 | 183 | 1.7 | 3.5 | 0.00 | 0.00 | 0.00 | 46 | 1012.0 |
| 20260906165756 | 96 | 186 | 2.6 | 6.1 | 0.00 | 0.00 | 0.00 | 46 | 1012.1 |
| 20260906165256 | 96 | 142 | 7.0 | 8.7 | 0.00 | 0.00 | 0.00 | 46 | 1011.8 |
| 20260906164755 | 96 | 293 | 0.0 | 6.1 | 0.00 | 0.00 | 0.00 | 46 | 1012.0 |
| 20260906164250 | 96 | 122 | 1.7 | 6.1 | 0.00 | 0.00 | 0.00 | 47 | 1012.0 |
| 20260906163746 | 95 | 166 | 4.3 | 7.0 | 0.00 | 0.00 | 0.00 | 47 | 1012.3 |
| 20260906163242 | 95 | 161 | 2.6 | 7.0 | 0.00 | 0.00 | 0.00 | 49 | 1012.1 |
| 20260906162739 | 96 | 96 | 3.5 | 7.0 | 0.00 | 0.00 | 0.00 | 48 | 1012.1 |
| 20260906162233 | 95 | 167 | 5.2 | 7.8 | 0.00 | 0.00 | 0.00 | 47 | 1012.1 |
| 20260906161733 | 95 | 161 | 3.5 | 7.0 | 0.00 | 0.00 | 0.00 | 47 | 1012.1 |
| 20260906161232 | 95 | 162 | 1.7 | 3.5 | 0.00 | 0.00 | 0.00 | 48 | 1012.1 |
| 20260906160732 | 94 | 195 | 0.9 | 5.2 | 0.00 | 0.00 | 0.00 | 48 | 1012.0 |
| 20260906160231 | 94 | 75 | 3.5 | 5.2 | 0.00 | 0.00 | 0.00 | 48 | 1012.0 |
| 20260906155729 | 95 | 171 | 3.5 | 6.1 | 0.00 | 0.00 | 0.00 | 49 | 1012.1 |
| 20260906155224 | 94 | 214 | 1.7 | 3.5 | 0.00 | 0.00 | 0.00 | 51 | 1012.2 |
| 20260906154719 | 94 | 170 | 2.6 | 7.0 | 0.00 | 0.00 | 0.00 | 52 | 1012.2 |
| 20260906154215 | 93 | 177 | 0.0 | 1.7 | 0.00 | 0.00 | 0.00 | 53 | 1012.3 |
| 20260906153712 | 94 | 152 | 3.5 | 6.1 | 0.00 | 0.00 | 0.00 | 53 | 1012.3 |
| 20260906153207 | 93 | 200 | 2.6 | 3.5 | 0.00 | 0.00 | 0.00 | 54 | 1011.9 |
| 20260906152703 | 93 | 161 | 0.0 | 2.6 | 0.00 | 0.00 | 0.00 | 54 | 1012.1 |
| 20260906152156 | 95 | 202 | 0.0 | 2.6 | 0.00 | 0.00 | 0.00 | 52 | 1012.0 |
| 20260906151651 | 93 | 218 | 0.0 | 0.9 | 0.00 | 0.00 | 0.00 | 55 | 1011.9 |
| 20260906151147 | 93 | 212 | 0.0 | 1.7 | 0.00 | 0.00 | 0.00 | 55 | 1011.8 |
| 20260906150642 | 91 | 211 | 0.9 | 1.7 | 0.00 | 0.00 | 0.00 | 57 | 1011.7 |
| 20260906150137 | 92 | 233 | 0.0 | 2.6 | 0.00 | 0.00 | 0.00 | 57 | 1011.6 |
| 20260906145636 | 92 | 182 | 1.7 | 3.5 | 0.00 | 0.00 | 0.00 | 56 | 1011.8 |
| 20260906145131 | 91 | 196 | 0.9 | 1.7 | 0.00 | 0.00 | 0.00 | 58 | 1011.6 |
| 20260906144631 | 90 | 214 | 0.0 | 0.9 | 0.00 | 0.00 | 0.00 | 60 | 1011.8 |
| 20260906144126 | 90 | 190 | 0.9 | 2.6 | 0.00 | 0.00 | 0.00 | 59 | 1011.6 |
| 20260906143626 | 91 | 214 | 0.0 | 2.6 | 0.00 | 0.00 | 0.00 | 59 | 1011.8 |
| 20260906143123 | 90 | 200 | 1.7 | 3.5 | 0.00 | 0.00 | 0.00 | 59 | 1011.7 |
| 20260906142622 | 88 | 207 | 1.7 | 1.7 | 0.00 | 0.00 | 0.00 | 62 | 1011.7 |
| 20260906142118 | 87 | 207 | 0.0 | 1.7 | 0.00 | 0.00 | 0.00 | 64 | 1011.7 |
| 20260906141616 | 87 | 179 | 1.7 | 2.6 | 0.00 | 0.00 | 0.00 | 65 | 1011.7 |
| 20260906141112 | 86 | 202 | 0.0 | 0.0 | 0.00 | 0.00 | 0.00 | 66 | 1011.8 |
| 20260906140611 | 86 | 181 | 1.7 | 2.6 | 0.00 | 0.00 | 0.00 | 67 | 1011.7 |
| 20260906140106 | 85 | 259 | 1.7 | 1.7 | 0.00 | 0.00 | 0.00 | 68 | 1011.7 |
| 20260906135603 | 85 | 117 | 0.9 | 1.7 | 0.00 | 0.00 | 0.00 | 68 | 1011.7 |
| 20260906135059 | 85 | 115 | 1.7 | 2.6 | 0.00 | 0.00 | 0.00 | 69 | 1011.5 |
| 20260906134554 | 84 | 205 | 0.9 | 2.6 | 0.00 | 0.00 | 0.00 | 70 | 1011.7 |
| 20260906134049 | 84 | 203 | 0.0 | 0.0 | 0.00 | 0.00 | 0.00 | 72 | 1011.9 |
| 20260906133550 | 84 | 179 | 0.0 | 0.0 | 0.00 | 0.00 | 0.00 | 71 | 1011.7 |
| 20260906133045 | 84 | 203 | 0.0 | 0.0 | 0.00 | 0.00 | 0.00 | 72 | 1011.9 |
| 20260906132540 | 83 | 179 | 1.7 | 2.6 | 0.00 | 0.00 | 0.00 | 72 | 1011.6 |
| 20260906132036 | 84 | 211 | 0.0 | 1.7 | 0.00 | 0.00 | 0.00 | 73 | 1011.9 |
| 20260906131531 | 83 | 202 | 0.9 | 1.7 | 0.00 | 0.00 | 0.00 | 73 | 1011.8 |
| 20260906131026 | 82 | 210 | 0.9 | 1.7 | 0.00 | 0.00 | 0.00 | 75 | 1011.6 |
| 20260906130526 | 82 | 207 | 0.0 | 0.0 | 0.00 | 0.00 | 0.00 | 75 | 1011.7 |
| 20260906130021 | 80 | 230 | 0.0 | 0.0 | 0.00 | 0.00 | 0.00 | 78 | 1011.6 |
| 20260906125519 | 78 | 230 | 0.0 | 0.0 | 0.00 | 0.00 | 0.00 | 82 | 1011.5 |
| 20260906125013 | 76 | 231 | 0.0 | 0.0 | 0.00 | 0.00 | 0.00 | 87 | 1011.4 |
| 20260906124508 | 75 | 231 | 0.0 | 0.0 | 0.00 | 0.00 | 0.00 | 89 | 1011.4 |
| 20260906124004 | 74 | 232 | 0.0 | 0.0 | 0.00 | 0.00 | 0.00 | 89 | 1011.4 |
| 20260906123503 | 73 | 232 | 0.0 | 0.0 | 0.00 | 0.00 | 0.00 | 89 | 1011.6 |
| 20260906123003 | 73 | 232 | 0.0 | 0.0 | 0.00 | 0.00 | 0.00 | 89 | 1011.3 |
| 20260906122457 | 73 | 232 | 0.0 | 0.0 | 0.00 | 0.00 | 0.00 | 89 | 1011.3 |
| 20260906121954 | 73 | 232 | 0.0 | 0.0 | 0.00 | 0.00 | 0.00 | 89 | 1011.2 |
| 20260906121450 | 73 | 232 | 0.0 | 0.0 | 0.00 | 0.00 | 0.00 | 89 | 1011.3 |
| 20260906120946 | 73 | 232 | 0.0 | 0.0 | 0.00 | 0.00 | 0.00 | 89 | 1011.2 |
| 20260906120441 | 73 | 232 | 0.0 | 0.0 | 0.00 | 0.00 | 0.00 | 89 | 1011.3 |
| 20260906115937 | 73 | 232 | 0.0 | 0.0 | 0.00 | 0.00 | 0.00 | 89 | 1010.9 |
| 20260906115432 | 73 | 232 | 0.0 | 0.0 | 0.00 | 0.00 | 0.00 | 89 | 1010.9 |
| 20260906114933 | 73 | 231 | 0.0 | 0.0 | 0.00 | 0.00 | 0.00 | 88 | 1010.9 |
| 20260906114432 | 73 | 231 | 0.0 | 0.0 | 0.00 | 0.00 | 0.00 | 89 | 1010.6 |
| 20260906113929 | 73 | 231 | 0.0 | 0.0 | 0.00 | 0.00 | 0.00 | 89 | 1010.6 |
| 20260906113427 | 73 | 231 | 0.0 | 0.0 | 0.00 | 0.00 | 0.00 | 89 | 1010.8 |
| 20260906112923 | 73 | 231 | 0.0 | 0.0 | 0.00 | 0.00 | 0.00 | 89 | 1010.8 |
| 20260906112418 | 74 | 229 | 0.0 | 0.0 | 0.00 | 0.00 | 0.00 | 88 | 1010.4 |
| 20260906111914 | 74 | 229 | 0.0 | 0.0 | 0.00 | 0.00 | 0.00 | 88 | 1010.6 |
| 20260906111413 | 74 | 229 | 0.0 | 0.0 | 0.00 | 0.00 | 0.00 | 88 | 1010.4 |
| 20260906110908 | 74 | 228 | 0.0 | 0.0 | 0.00 | 0.00 | 0.00 | 87 | 1010.5 |
| 20260906110403 | 74 | 228 | 0.0 | 0.0 | 0.00 | 0.00 | 0.00 | 88 | 1010.4 |
| 20260906105903 | 73 | 229 | 0.0 | 0.0 | 0.00 | 0.00 | 0.00 | 87 | 1010.4 |
| 20260906105358 | 74 | 228 | 0.0 | 0.0 | 0.00 | 0.00 | 0.00 | 86 | 1010.2 |
| 20260906104854 | 74 | 228 | 0.0 | 0.0 | 0.00 | 0.00 | 0.00 | 87 | 1010.3 |
| 20260906104353 | 74 | 228 | 0.0 | 0.0 | 0.00 | 0.00 | 0.00 | 87 | 1010.6 |
| 20260906103851 | 74 | 228 | 0.0 | 0.0 | 0.00 | 0.00 | 0.00 | 87 | 1010.6 |
| 20260906103350 | 74 | 228 | 0.0 | 0.0 | 0.00 | 0.00 | 0.00 | 87 | 1010.3 |
| 20260906102846 | 74 | 228 | 0.0 | 0.0 | 0.00 | 0.00 | 0.00 | 87 | 1010.3 |
| 20260906102345 | 74 | 228 | 0.0 | 0.0 | 0.00 | 0.00 | 0.00 | 87 | 1010.5 |
| 20260906101840 | 74 | 228 | 0.0 | 0.0 | 0.00 | 0.00 | 0.00 | 86 | 1010.4 |
| 20260906101335 | 75 | 228 | 0.0 | 0.0 | 0.00 | 0.00 | 0.00 | 85 | 1010.2 |
| 20260906100831 | 75 | 228 | 0.0 | 0.0 | 0.00 | 0.00 | 0.00 | 85 | 1010.2 |
| 20260906100330 | 75 | 228 | 0.0 | 0.0 | 0.00 | 0.00 | 0.00 | 85 | 1010.2 |
| 20260906095825 | 76 | 228 | 0.0 | 0.0 | 0.00 | 0.00 | 0.00 | 84 | 1010.4 |
| 20260906095321 | 76 | 228 | 0.0 | 0.0 | 0.00 | 0.00 | 0.00 | 84 | 1010.1 |
| 20260906094820 | 76 | 228 | 0.0 | 0.0 | 0.00 | 0.00 | 0.00 | 82 | 1010.1 |
| 20260906094315 | 77 | 228 | 0.0 | 0.0 | 0.00 | 0.00 | 0.00 | 80 | 1010.2 |
| 20260906093811 | 78 | 227 | 0.0 | 0.0 | 0.00 | 0.00 | 0.00 | 79 | 1010.1 |
| 20260906093307 | 78 | 210 | 0.0 | 0.0 | 0.00 | 0.00 | 0.00 | 79 | 1010.1 |
| 20260906092802 | 79 | 210 | 0.0 | 0.0 | 0.00 | 0.00 | 0.00 | 78 | 1009.9 |
| 20260906092305 | 79 | 211 | 0.0 | 0.0 | 0.00 | 0.00 | 0.00 | 78 | 1009.7 |
| 20260906091758 | 79 | 210 | 0.0 | 0.9 | 0.00 | 0.00 | 0.00 | 78 | 1009.7 |
| 20260906091254 | 78 | 194 | 1.7 | 2.6 | 0.00 | 0.00 | 0.00 | 80 | 1009.7 |
| 20260906090750 | 78 | 194 | 1.7 | 1.7 | 0.00 | 0.00 | 0.00 | 80 | 1009.6 |
| 20260906090249 | 78 | 214 | 0.0 | 0.0 | 0.00 | 0.00 | 0.00 | 79 | 1009.5 |
| 20260906085748 | 79 | 215 | 0.0 | 0.0 | 0.00 | 0.00 | 0.00 | 78 | 1009.7 |
| 20260906085247 | 79 | 215 | 0.0 | 0.0 | 0.00 | 0.00 | 0.00 | 77 | 1009.3 |
| 20260906084743 | 79 | 215 | 0.0 | 0.0 | 0.00 | 0.00 | 0.00 | 77 | 1009.6 |
| 20260906084242 | 80 | 214 | 0.0 | 0.0 | 0.00 | 0.00 | 0.00 | 77 | 1009.6 |
| 20260906083737 | 80 | 217 | 0.0 | 0.0 | 0.00 | 0.00 | 0.00 | 76 | 1010.0 |
| 20260906083232 | 80 | 204 | 0.9 | 0.9 | 0.00 | 0.00 | 0.00 | 76 | 1009.9 |
| 20260906082727 | 80 | 206 | 0.0 | 0.0 | 0.00 | 0.00 | 0.00 | 76 | 1009.5 |
| 20260906082223 | 80 | 197 | 0.0 | 0.0 | 0.00 | 0.00 | 0.00 | 75 | 1009.4 |
| 20260906081719 | 80 | 207 | 0.0 | 2.6 | 0.00 | 0.00 | 0.00 | 75 | 1009.4 |
| 20260906081213 | 80 | 207 | 1.7 | 2.6 | 0.00 | 0.00 | 0.00 | 75 | 1009.5 |
| 20260906080710 | 80 | 201 | 1.7 | 3.5 | 0.00 | 0.00 | 0.00 | 75 | 1009.6 |
| 20260906080206 | 80 | 208 | 0.9 | 1.7 | 0.00 | 0.00 | 0.00 | 75 | 1009.6 |
| 20260906075706 | 80 | 203 | 0.9 | 1.7 | 0.00 | 0.00 | 0.00 | 75 | 1009.9 |
| 20260906075200 | 80 | 206 | 0.0 | 0.0 | 0.00 | 0.00 | 0.00 | 75 | 1009.9 |
| 20260906074656 | 80 | 199 | 0.9 | 2.6 | 0.00 | 0.00 | 0.00 | 75 | 1010.0 |
| 20260906074155 | 80 | 207 | 0.9 | 0.9 | 0.00 | 0.00 | 0.00 | 75 | 1010.0 |
| 20260906073650 | 80 | 209 | 0.0 | 0.0 | 0.00 | 0.00 | 0.00 | 75 | 1010.1 |
| 20260906073145 | 80 | 212 | 0.9 | 1.7 | 0.00 | 0.00 | 0.00 | 75 | 1010.1 |
| 20260906072641 | 80 | 205 | 0.0 | 0.0 | 0.00 | 0.00 | 0.00 | 74 | 1010.2 |
| 20260906072136 | 80 | 206 | 0.9 | 1.7 | 0.00 | 0.00 | 0.00 | 74 | 1009.9 |
| 20260906071632 | 81 | 211 | 0.0 | 0.0 | 0.00 | 0.00 | 0.00 | 74 | 1009.9 |
| 20260906071132 | 81 | 210 | 0.9 | 0.9 | 0.00 | 0.00 | 0.00 | 74 | 1009.9 |
| 20260906070629 | 81 | 213 | 0.0 | 0.0 | 0.00 | 0.00 | 0.00 | 74 | 1009.8 |
| 20260906070124 | 81 | 202 | 0.0 | 0.9 | 0.00 | 0.00 | 0.00 | 73 | 1009.8 |
| 20260906065624 | 81 | 209 | 0.0 | 0.9 | 0.00 | 0.00 | 0.00 | 73 | 1009.8 |
| 20260906065119 | 81 | 210 | 0.9 | 0.9 | 0.00 | 0.00 | 0.00 | 73 | 1009.8 |
| 20260906064615 | 82 | 206 | 0.0 | 0.0 | 0.00 | 0.00 | 0.00 | 72 | 1010.2 |
| 20260906064110 | 82 | 211 | 0.0 | 0.0 | 0.00 | 0.00 | 0.00 | 72 | 1010.3 |
| 20260906063605 | 82 | 209 | 0.9 | 1.7 | 0.00 | 0.00 | 0.00 | 72 | 1010.1 |
| 20260906063101 | 82 | 212 | 0.9 | 1.7 | 0.00 | 0.00 | 0.00 | 71 | 1010.1 |
| 20260906062556 | 82 | 208 | 0.0 | 1.7 | 0.00 | 0.00 | 0.00 | 71 | 1010.3 |
| 20260906062055 | 82 | 212 | 0.0 | 0.0 | 0.00 | 0.00 | 0.00 | 71 | 1010.1 |
| 20260906061552 | 82 | 195 | 1.7 | 1.7 | 0.00 | 0.00 | 0.00 | 71 | 1010.1 |
| 20260906061051 | 82 | 209 | 0.9 | 0.9 | 0.00 | 0.00 | 0.00 | 71 | 1010.3 |
| 20260906060548 | 82 | 212 | 0.0 | 0.0 | 0.00 | 0.00 | 0.00 | 71 | 1010.3 |
| 20260906060044 | 83 | 213 | 0.0 | 0.0 | 0.00 | 0.00 | 0.00 | 70 | 1010.3 |
| 20260906055540 | 83 | 189 | 0.9 | 1.7 | 0.00 | 0.00 | 0.00 | 70 | 1010.3 |
| 20260906055035 | 83 | 205 | 1.7 | 2.6 | 0.00 | 0.00 | 0.00 | 70 | 1010.6 |
| 20260906054535 | 83 | 210 | 0.0 | 0.9 | 0.00 | 0.00 | 0.00 | 70 | 1010.5 |
| 20260906054031 | 83 | 205 | 0.9 | 1.7 | 0.00 | 0.00 | 0.00 | 70 | 1010.2 |
| 20260906053527 | 83 | 207 | 0.9 | 1.7 | 0.00 | 0.00 | 0.00 | 70 | 1010.4 |
| 20260906053022 | 82 | 215 | 0.0 | 0.9 | 0.00 | 0.00 | 0.00 | 71 | 1010.4 |
| 20260906052518 | 82 | 214 | 0.0 | 0.9 | 0.00 | 0.00 | 0.00 | 72 | 1010.4 |
| 20260906052015 | 81 | 210 | 0.0 | 0.0 | 0.00 | 0.00 | 0.00 | 74 | 1010.4 |
| 20260906051510 | 81 | 211 | 0.0 | 0.0 | 0.00 | 0.00 | 0.00 | 73 | 1010.3 |
| 20260906051006 | 81 | 211 | 0.0 | 0.0 | 0.00 | 0.00 | 0.00 | 72 | 1010.2 |
| 20260906050500 | 82 | 211 | 0.0 | 0.0 | 0.00 | 0.00 | 0.00 | 71 | 1010.3 |
| 20260906050000 | 83 | 210 | 0.0 | 0.0 | 0.00 | 0.00 | 0.00 | 70 | 1010.3 |
| 20260906045458 | 83 | 210 | 0.0 | 0.0 | 0.00 | 0.00 | 0.00 | 69 | 1010.4 |
| 20260906044955 | 84 | 210 | 0.0 | 0.0 | 0.00 | 0.00 | 0.00 | 68 | 1010.5 |
| 20260906044449 | 84 | 210 | 0.0 | 0.0 | 0.00 | 0.00 | 0.00 | 68 | 1010.2 |
| 20260906043945 | 84 | 210 | 0.0 | 0.0 | 0.00 | 0.00 | 0.00 | 67 | 1010.0 |
| 20260906043441 | 85 | 211 | 0.0 | 0.0 | 0.00 | 0.00 | 0.00 | 66 | 1010.3 |
| 20260906042936 | 85 | 210 | 0.0 | 0.0 | 0.00 | 0.00 | 0.00 | 65 | 1010.1 |
| 20260906042436 | 86 | 215 | 0.0 | 1.7 | 0.00 | 0.00 | 0.00 | 65 | 1010.3 |
| 20260906041930 | 86 | 213 | 0.0 | 1.7 | 0.00 | 0.00 | 0.00 | 64 | 1009.9 |
| 20260906041426 | 86 | 189 | 1.7 | 2.6 | 0.00 | 0.00 | 0.00 | 64 | 1010.1 |
| 20260906040920 | 86 | 199 | 1.7 | 2.6 | 0.00 | 0.00 | 0.00 | 63 | 1010.1 |
| 20260906040415 | 86 | 204 | 1.7 | 3.5 | 0.00 | 0.00 | 0.00 | 63 | 1010.1 |
| 20260906035911 | 86 | 160 | 1.7 | 2.6 | 0.00 | 0.00 | 0.00 | 63 | 1010.1 |
| 20260906035406 | 87 | 183 | 0.9 | 5.2 | 0.00 | 0.00 | 0.00 | 62 | 1010.2 |
| 20260906034901 | 87 | 165 | 1.7 | 2.6 | 0.00 | 0.00 | 0.00 | 62 | 1010.1 |
| 20260906034355 | 87 | 210 | 0.9 | 2.6 | 0.00 | 0.00 | 0.00 | 61 | 1010.1 |
| 20260906033852 | 87 | 189 | 0.0 | 6.1 | 0.00 | 0.00 | 0.00 | 60 | 1010.2 |
| 20260906033351 | 87 | 202 | 1.7 | 5.2 | 0.00 | 0.00 | 0.00 | 60 | 1010.2 |
| 20260906032847 | 88 | 194 | 1.7 | 5.2 | 0.00 | 0.00 | 0.00 | 59 | 1010.1 |
| 20260906032343 | 88 | 192 | 3.5 | 3.5 | 0.00 | 0.00 | 0.00 | 59 | 1010.2 |
| 20260906031838 | 88 | 174 | 2.6 | 2.6 | 0.00 | 0.00 | 0.00 | 58 | 1010.0 |
| 20260906031333 | 88 | 169 | 2.6 | 5.2 | 0.00 | 0.00 | 0.00 | 58 | 1009.9 |
| 20260906030833 | 88 | 188 | 2.6 | 5.2 | 0.00 | 0.00 | 0.00 | 57 | 1010.0 |
| 20260906030329 | 89 | 196 | 1.7 | 3.5 | 0.00 | 0.00 | 0.00 | 57 | 1009.9 |
| 20260906025829 | 89 | 180 | 3.5 | 5.2 | 0.00 | 0.00 | 0.00 | 56 | 1010.0 |
| 20260906025323 | 89 | 170 | 0.0 | 6.1 | 0.00 | 0.00 | 0.00 | 55 | 1009.9 |
| 20260906024822 | 89 | 228 | 4.3 | 7.0 | 0.00 | 0.00 | 0.00 | 55 | 1010.0 |
| 20260906024321 | 90 | 231 | 3.5 | 7.0 | 0.00 | 0.00 | 0.00 | 54 | 1009.7 |
| 20260906023817 | 90 | 205 | 1.7 | 7.0 | 0.00 | 0.00 | 0.00 | 54 | 1009.7 |
| 20260906023312 | 90 | 144 | 5.2 | 7.8 | 0.00 | 0.00 | 0.00 | 54 | 1009.6 |
| 20260906022808 | 90 | 151 | 3.5 | 6.1 | 0.00 | 0.00 | 0.00 | 53 | 1009.5 |
| 20260906022306 | 91 | 168 | 3.5 | 5.2 | 0.00 | 0.00 | 0.00 | 51 | 1009.6 |
| 20260906021759 | 90 | 138 | 7.8 | 11.3 | 0.00 | 0.00 | 0.00 | 50 | 1009.1 |
| 20260906021257 | 88 | 272 | 1.7 | 1.7 | 0.00 | 0.00 | 0.00 | 51 | 1009.2 |
| 20260906020752 | 87 | 209 | 0.0 | 0.0 | 0.00 | 0.00 | 0.00 | 52 | 1009.1 |
| 20260906020252 | 86 | 243 | 0.0 | 0.0 | 0.00 | 0.00 | 0.00 | 54 | 1008.9 |
| 20260906015752 | 86 | 226 | 0.0 | 0.0 | 0.00 | 0.00 | 0.00 | 53 | 1008.8 |
| 20260906015251 | 87 | 237 | 0.0 | 0.0 | 0.00 | 0.00 | 0.00 | 53 | 1008.7 |
| 20260906014746 | 87 | 227 | 0.0 | 0.0 | 0.00 | 0.00 | 0.00 | 52 | 1008.8 |
| 20260906014241 | 88 | 225 | 0.0 | 0.0 | 0.00 | 0.00 | 0.00 | 52 | 1008.6 |
| 20260906013737 | 89 | 225 | 0.0 | 0.0 | 0.00 | 0.00 | 0.00 | 50 | 1008.8 |
| 20260906013237 | 89 | 234 | 0.0 | 0.0 | 0.00 | 0.00 | 0.00 | 49 | 1008.6 |
| 20260906012732 | 90 | 232 | 0.0 | 0.0 | 0.00 | 0.00 | 0.00 | 49 | 1008.6 |
| 20260906012227 | 90 | 229 | 0.0 | 0.9 | 0.00 | 0.00 | 0.00 | 48 | 1008.5 |
| 20260906011723 | 90 | 232 | 0.0 | 0.0 | 0.00 | 0.00 | 0.00 | 47 | 1008.6 |
| 20260906011217 | 91 | 232 | 0.0 | 0.0 | 0.00 | 0.00 | 0.00 | 47 | 1008.5 |
| 20260906010713 | 92 | 233 | 0.0 | 0.0 | 0.00 | 0.00 | 0.00 | 46 | 1008.3 |
| 20260906010209 | 93 | 221 | 0.0 | 0.0 | 0.00 | 0.00 | 0.00 | 45 | 1008.2 |
| 20260906005709 | 93 | 218 | 0.0 | 0.9 | 0.00 | 0.00 | 0.00 | 44 | 1008.2 |
| 20260906005208 | 94 | 197 | 1.7 | 3.5 | 0.00 | 0.00 | 0.00 | 43 | 1008.5 |
| 20260906004707 | 94 | 212 | 0.9 | 2.6 | 0.00 | 0.00 | 0.00 | 43 | 1008.3 |
| 20260906004202 | 95 | 203 | 0.9 | 1.7 | 0.00 | 0.00 | 0.00 | 42 | 1008.3 |
| 20260906003658 | 95 | 202 | 0.9 | 2.6 | 0.00 | 0.00 | 0.00 | 42 | 1008.4 |
| 20260906003154 | 96 | 181 | 1.7 | 3.5 | 0.00 | 0.00 | 0.00 | 41 | 1008.2 |
| 20260906002654 | 96 | 207 | 0.9 | 1.7 | 0.00 | 0.00 | 0.00 | 41 | 1008.3 |
| 20260906002148 | 96 | 42 | 2.6 | 5.2 | 0.00 | 0.00 | 0.00 | 40 | 1008.3 |
| 20260906001643 | 97 | 186 | 0.0 | 0.0 | 0.00 | 0.00 | 0.00 | 39 | 1008.2 |
| 20260906001143 | 97 | 218 | 0.0 | 1.7 | 0.00 | 0.00 | 0.00 | 39 | 1008.1 |
| 20260906000639 | 97 | 209 | 0.9 | 2.6 | 0.00 | 0.00 | 0.00 | 39 | 1008.1 |
| 20260906000134 | 97 | 159 | 3.5 | 3.5 | 0.00 | 0.00 | 0.00 | 39 | 1008.1 |
| 20260905235633 | 98 | 207 | 0.9 | 3.5 | 0.00 | 0.00 | 0.00 | 38 | 1007.8 |
| 20260905235129 | 98 | 252 | 1.7 | 3.5 | 0.00 | 0.00 | 0.00 | 37 | 1008.0 |
| 20260905234624 | 99 | 134 | 3.5 | 6.1 | 0.00 | 0.00 | 0.00 | 37 | 1008.0 |
| 20260905234120 | 99 | 210 | 1.7 | 2.6 | 0.00 | 0.00 | 0.00 | 37 | 1008.0 |
| 20260905233620 | 99 | 210 | 0.0 | 2.6 | 0.00 | 0.00 | 0.00 | 37 | 1008.0 |
| 20260905233114 | 98 | 168 | 2.6 | 2.6 | 0.00 | 0.00 | 0.00 | 37 | 1008.0 |
| 20260905232609 | 98 | 199 | 0.9 | 2.6 | 0.00 | 0.00 | 0.00 | 37 | 1008.0 |
| 20260905232105 | 99 | 182 | 3.5 | 6.1 | 0.00 | 0.00 | 0.00 | 37 | 1007.9 |
| 20260905231600 | 98 | 212 | 0.9 | 1.7 | 0.00 | 0.00 | 0.00 | 38 | 1008.0 |
| 20260905231056 | 98 | 168 | 3.5 | 6.1 | 0.00 | 0.00 | 0.00 | 38 | 1007.9 |
| 20260905230556 | 99 | 55 | 2.6 | 6.1 | 0.00 | 0.00 | 0.00 | 37 | 1008.0 |
| 20260905230055 | 99 | 289 | 0.0 | 2.6 | 0.00 | 0.00 | 0.00 | 37 | 1008.0 |
| 20260905225554 | 99 | 191 | 1.7 | 3.5 | 0.00 | 0.00 | 0.00 | 37 | 1007.8 |
| 20260905225050 | 100 | 222 | 1.7 | 5.2 | 0.00 | 0.00 | 0.00 | 37 | 1007.8 |
| 20260905224550 | 101 | 206 | 2.6 | 7.0 | 0.00 | 0.00 | 0.00 | 36 | 1007.9 |